When you browse on this site, cookies collect data to enhance your experience and personalize the content and advertising you see.
Visit our Privacy Policy to learn more. By continuing to use the site, you agree to this use of cookies and data.
EN

Hourly Weather Kermanshah

Today, 7 August, Friday

Time Temperature Precipitation Wind Pressure Humidity
00:00 +22°C° 0 mm 3 mps 633 mmHg 45%
01:00 +21°C° 0 mm 3 mps 633 mmHg 48%
02:00 +20°C° 0 mm 2 mps 633 mmHg 52%
03:00 +19°C° 0 mm 2 mps 632 mmHg 57%
04:00 +19°C° 0 mm 2 mps 633 mmHg 57%
05:00 +19°C° 0 mm 2 mps 633 mmHg 58%
06:00 +19°C° 0 mm 2 mps 633 mmHg 58%
07:00 +21°C° 0 mm 2 mps 634 mmHg 49%
08:00 +25°C° 0 mm 3 mps 634 mmHg 40%
09:00 +28°C° 0 mm 3 mps 635 mmHg 31%
10:00 +30°C° 0 mm 3 mps 635 mmHg 27%
11:00 +33°C° 0 mm 3 mps 636 mmHg 23%
12:00 +35°C° 0 mm 4 mps 636 mmHg 19%
13:00 +36°C° 0 mm 3 mps 636 mmHg 17%
14:00 +37°C° 0 mm 3 mps 635 mmHg 15%
15:00 +37°C° 0 mm 2 mps 635 mmHg 13%
16:00 +37°C° 0 mm 3 mps 635 mmHg 14%
17:00 +36°C° 0 mm 3 mps 634 mmHg 15%
18:00 +35°C° 0 mm 4 mps 634 mmHg 15%
19:00 +33°C° 0 mm 4 mps 634 mmHg 21%
20:00 +29°C° 0 mm 5 mps 634 mmHg 26%
21:00 +27°C° 0 mm 6 mps 633 mmHg 31%
22:00 +25°C° 0 mm 5 mps 633 mmHg 36%
23:00 +23°C° 0 mm 4 mps 633 mmHg 41%

Tomorrow, 8 August, Saturday

Time Temperature Precipitation Wind Pressure Humidity
00:00 +22°C° 0 mm 3 mps 633 mmHg 46%
01:00 +21°C° 0 mm 3 mps 632 mmHg 50%
02:00 +19°C° 0 mm 3 mps 632 mmHg 53%
03:00 +18°C° 0 mm 2 mps 631 mmHg 56%
04:00 +18°C° 0 mm 2 mps 632 mmHg 56%
05:00 +18°C° 0 mm 2 mps 632 mmHg 56%
06:00 +18°C° 0 mm 2 mps 632 mmHg 56%
07:00 +21°C° 0 mm 2 mps 633 mmHg 48%
08:00 +25°C° 0 mm 2 mps 633 mmHg 40%
09:00 +27°C° 0 mm 3 mps 634 mmHg 33%
10:00 +30°C° 0 mm 3 mps 634 mmHg 28%
11:00 +33°C° 0 mm 3 mps 634 mmHg 24%
12:00 +35°C° 0 mm 3 mps 635 mmHg 19%
13:00 +36°C° 0 mm 2 mps 634 mmHg 17%
14:00 +37°C° 0 mm 2 mps 634 mmHg 14%
15:00 +37°C° 0 mm 1 mps 634 mmHg 12%
16:00 +37°C° 0 mm 2 mps 633 mmHg 12%
17:00 +36°C° 0 mm 2 mps 633 mmHg 13%
18:00 +35°C° 0 mm 2 mps 633 mmHg 14%
19:00 +31°C° 0 mm 2 mps 632 mmHg 17%
20:00 +28°C° 0 mm 2 mps 632 mmHg 20%
21:00 +25°C° 0 mm 1 mps 631 mmHg 23%
22:00 +24°C° 0 mm 1 mps 631 mmHg 26%
23:00 +23°C° 0 mm 1 mps 631 mmHg 30%

Day after tomorrow, 9 August, Sunday

Time Temperature Precipitation Wind Pressure Humidity
00:00 +21°C° 0 mm 2 mps 631 mmHg 33%
01:00 +21°C° 0 mm 2 mps 630 mmHg 36%
02:00 +21°C° 0 mm 1 mps 630 mmHg 39%
03:00 +20°C° 0 mm 1 mps 630 mmHg 42%
04:00 +20°C° 0 mm 1 mps 630 mmHg 42%
05:00 +21°C° 0 mm 1 mps 630 mmHg 42%
06:00 +21°C° 0 mm 1 mps 631 mmHg 42%
07:00 +24°C° 0 mm 1 mps 632 mmHg 36%
08:00 +27°C° 0 mm 2 mps 633 mmHg 30%
09:00 +30°C° 0 mm 2 mps 633 mmHg 24%
10:00 +32°C° 0 mm 2 mps 634 mmHg 20%
11:00 +36°C° 0 mm 2 mps 634 mmHg 16%
12:00 +38°C° 0 mm 2 mps 635 mmHg 12%
13:00 +39°C° 0 mm 3 mps 635 mmHg 11%
14:00 +39°C° 0 mm 3 mps 634 mmHg 10%
15:00 +41°C° 0 mm 4 mps 634 mmHg 9%
16:00 +40°C° 0 mm 4 mps 634 mmHg 10%
17:00 +37°C° 0 mm 4 mps 634 mmHg 11%
18:00 +36°C° 0 mm 5 mps 633 mmHg 12%
19:00 +33°C° 0 mm 3 mps 633 mmHg 15%
20:00 +28°C° 0 mm 2 mps 632 mmHg 19%
21:00 +25°C° 0 mm 1 mps 632 mmHg 22%
22:00 +24°C° 0 mm 1 mps 632 mmHg 23%
23:00 +23°C° 0 mm 1 mps 632 mmHg 24%

10 August, Monday

Time Temperature Precipitation Wind Pressure Humidity
00:00 +22°C° 0 mm 1 mps 632 mmHg 26%
01:00 +22°C° 0 mm 1 mps 631 mmHg 27%
02:00 +19°C° 0 mm 0 mps 631 mmHg 29%
03:00 +19°C° 0 mm 0 mps 631 mmHg 31%
04:00 +19°C° 0 mm 0 mps 631 mmHg 30%
05:00 +20°C° 0 mm 0 mps 632 mmHg 30%
06:00 +20°C° 0 mm 0 mps 632 mmHg 29%
07:00 +24°C° 0 mm 0 mps 633 mmHg 24%
08:00 +29°C° 0 mm 1 mps 634 mmHg 19%
09:00 +32°C° 0 mm 1 mps 635 mmHg 15%
10:00 +34°C° 0 mm 1 mps 636 mmHg 13%
11:00 +37°C° 0 mm 2 mps 636 mmHg 11%
12:00 +39°C° 0 mm 2 mps 636 mmHg 9%
13:00 +39°C° 0 mm 3 mps 636 mmHg 9%
14:00 +40°C° 0 mm 3 mps 636 mmHg 8%
15:00 +41°C° 0 mm 4 mps 636 mmHg 8%
16:00 +40°C° 0 mm 4 mps 635 mmHg 9%
17:00 +37°C° 0 mm 5 mps 635 mmHg 11%
18:00 +35°C° 0 mm 5 mps 634 mmHg 12%
19:00 +32°C° 0 mm 4 mps 634 mmHg 15%
20:00 +28°C° 0 mm 3 mps 633 mmHg 18%
21:00 +25°C° 0 mm 2 mps 633 mmHg 21%
22:00 +24°C° 0 mm 2 mps 632 mmHg 23%
23:00 +23°C° 0 mm 2 mps 632 mmHg 26%

11 August, Tuesday

Time Temperature Precipitation Wind Pressure Humidity
00:00 +20°C° 0 mm 2 mps 632 mmHg 28%
01:00 +20°C° 0 mm 2 mps 631 mmHg 30%
02:00 +20°C° 0 mm 1 mps 631 mmHg 31%
03:00 +20°C° 0 mm 1 mps 631 mmHg 33%
04:00 +20°C° 0 mm 1 mps 631 mmHg 32%
05:00 +20°C° 0 mm 1 mps 631 mmHg 32%
06:00 +19°C° 0 mm 0 mps 631 mmHg 31%
07:00 +22°C° 0 mm 0 mps 632 mmHg 26%
08:00 +28°C° 0 mm 1 mps 633 mmHg 20%
09:00 +31°C° 0 mm 1 mps 634 mmHg 15%
10:00 +35°C° 0 mm 2 mps 634 mmHg 13%
11:00 +37°C° 0 mm 2 mps 635 mmHg 11%
12:00 +39°C° 0 mm 3 mps 635 mmHg 9%
13:00 +41°C° 0 mm 4 mps 635 mmHg 9%
14:00 +41°C° 0 mm 5 mps 635 mmHg 9%
15:00 +42°C° 0 mm 5 mps 634 mmHg 8%
16:00 +40°C° 0 mm 5 mps 634 mmHg 10%
17:00 +37°C° 0 mm 5 mps 633 mmHg 11%
18:00 +35°C° 0 mm 4 mps 633 mmHg 13%
19:00 +31°C° 0 mm 3 mps 632 mmHg 18%
20:00 +28°C° 0 mm 2 mps 632 mmHg 23%
21:00 +25°C° 0 mm 2 mps 631 mmHg 28%
22:00 +24°C° 0 mm 1 mps 631 mmHg 30%
23:00 +23°C° 0 mm 1 mps 630 mmHg 33%

12 August, Wednesday

Time Temperature Precipitation Wind Pressure Humidity
00:00 +22°C° 0 mm 1 mps 630 mmHg 35%
01:00 +21°C° 0 mm 1 mps 629 mmHg 37%
02:00 +21°C° 0 mm 1 mps 629 mmHg 39%
03:00 +20°C° 0 mm 1 mps 629 mmHg 41%
04:00 +21°C° 0 mm 1 mps 629 mmHg 39%
05:00 +19°C° 0 mm 0 mps 630 mmHg 38%
06:00 +20°C° 0 mm 0 mps 630 mmHg 36%
07:00 +25°C° 0 mm 1 mps 631 mmHg 29%
08:00 +29°C° 0 mm 1 mps 632 mmHg 22%
09:00 +33°C° 0 mm 1 mps 634 mmHg 15%
10:00 +36°C° 0 mm 3 mps 634 mmHg 13%
11:00 +38°C° 0 mm 4 mps 634 mmHg 10%
12:00 +41°C° 0 mm 5 mps 635 mmHg 8%
13:00 +41°C° 0 mm 5 mps 635 mmHg 7%
14:00 +41°C° 0 mm 5 mps 635 mmHg 7%
15:00 +42°C° 0 mm 4 mps 634 mmHg 7%
16:00 +40°C° 0 mm 4 mps 634 mmHg 9%
17:00 +37°C° 0 mm 4 mps 634 mmHg 12%
18:00 +35°C° 0 mm 3 mps 633 mmHg 15%
19:00 +31°C° 0 mm 2 mps 633 mmHg 20%
20:00 +27°C° 0 mm 1 mps 632 mmHg 24%
21:00 +22°C° 0 mm 0 mps 631 mmHg 29%
22:00 +23°C° 0 mm 1 mps 631 mmHg 33%
23:00 +22°C° 0 mm 1 mps 631 mmHg 36%
Show more